Regional Weather Roundup
Issued by NWS

Home | Current Version | Previous Version | Text Only | Print | Product List | Glossary On
Versions: 1 2 3 4 5 6 7 8 9 10 11 12 13 14 15 16 17 18 19 20 21 22 23 24 25 26 27 28 29 30 31 32 33 34 35 36 37 38 39 40 41 42 43 44 45 46 47 48 49 50
000
ASUS43 KLMK 281902
RWRKY
KENTUCKY REGIONAL WEATHER ROUNDUP
NATIONAL WEATHER SERVICE LOUISVILLE KY
200 PM EST SAT FEB 28 2015

NOTE "FAIR" INDICATES FEW OR NO CLOUDS BELOW 12,000 FEET
WITH NO SIGNIFICANT WEATHER AND/OR OBSTRUCTIONS TO VISIBILITY.

KYZ001>023-026-027-061>063-070>075-282000-
WESTERN AND SOUTH CENTRAL KENTUCKY

CITY           SKY/WX    TMP DP  RH WIND       PRES   REMARKS
PADUCAH        CLOUDY    31  15  52 E9        30.53F WCI  23
HENDERSON      CLOUDY    30  16  55 E8        30.58F WCI  23
OWENSBORO      PTSUNNY   33  15  48 E7        30.57F WCI  27
HOPKINSVILLE   CLOUDY    32  19  56 E8        30.52F WCI  25
BOWLING GREEN  CLOUDY    36  17  46 NE7       30.56F WCI  30
GLASGOW        NOT AVBL
$$

KYZ024-025-028>034-038-045-046-053-282000-
NORTH CENTRAL KENTUCKY

CITY           SKY/WX    TMP DP  RH WIND       PRES   REMARKS
LOUISVILLE/SDF PTSUNNY   33  12  41 SE7       30.60F WCI  27
LOUISVILLE/LOU CLOUDY    32  11  41 NE6       30.61F WCI  26
FORT KNOX      CLOUDY    33  13  44 E6        30.55F WCI  27
$$

KYZ035>037-039>044-047>052-055>060-089>105-282000-
NORTHEAST KENTUCKY

CITY           SKY/WX    TMP DP  RH WIND       PRES   REMARKS
LEXINGTON      CLOUDY    31  14  49 VRB6      30.60F WCI  25
COVINGTON      CLOUDY    26   6  42 E5        30.62F WCI  20
FRANKFORT        N/A     29  13  51 E8        30.60F WCI  21
$$

KYZ054-064>069-076>088-106>120-282000-
SOUTHEAST KENTUCKY

CITY           SKY/WX    TMP DP  RH WIND       PRES   REMARKS
JACKSON        SUNNY     37  12  35 CALM      30.55F
LONDON         PTSUNNY   39  15  37 VRB3      30.54F
SOMERSET       NOT AVBL
MIDDLESBORO    SUNNY     41  21  44 E3        30.54F
MONTICELLO     PTCLDY    42  21  43 CALM      30.57F
$$




USA.gov is the U.S. government's official web portal to all federal, state and local government web resources and services.